Wind_Speed
31 31 31 30 29 27 26 26 26 25 23 21 23 23 21 19 17 16 15 14 15 15 15 15 15 16 17 19 20 21 20 22 23 21 14 24 27 37 35 34 31 29 28 20 24
28 28 28 28 28 27 26 25 27 28 27 24 24 25 26 25 23 22 21 20 20 19 18 18 19 19 20 22 22 22 23 24 25 23 25 31 36 35 34 33 33 31 28 27 26
25 27 28 27 27 27 26 25 24 27 31 28 26 26 26 27 29 28 26 25 26 24 24 23 23 25 25 25 27 27 26 27 27 25 30 31 32 30 31 34 33 33 27 26 23
22 24 26 27 27 27 26 26 25 25 30 31 31 30 28 28 28 30 31 31 31 30 30 29 29 29 29 29 30 30 31 32 31 30 30 33 34 30 29 32 32 25 30 27 29
19 23 26 27 29 30 30 29 28 28 28 30 32 32 32 31 31 31 31 33 34 34 34 34 34 34 34 33 33 33 33 32 30 30 32 33 34 32 30 30 31 27 32 35 36
15 17 20 24 28 31 32 33 33 32 31 31 32 34 32 32 33 34 35 35 36 36 35 35 34 33 32 32 31 31 32 32 31 30 33 35 34 32 29 27 28 29 30 30 26
17 17 17 18 21 24 27 30 34 35 36 36 36 36 36 36 36 36 37 40 40 39 38 37 34 33 31 31 31 33 33 33 33 34 33 32 32 31 30 26 26 24 27 27 25
21 21 21 21 20 19 19 21 24 28 33 38 38 38 38 38 37 37 37 38 44 44 42 40 38 35 35 35 34 35 36 35 34 31 29 29 28 25 26 27 25 22 18 14 18
21 21 22 23 23 22 22 22 20 20 22 26 30 36 38 38 38 37 37 36 37 43 45 44 42 40 39 38 38 36 36 36 32 30 29 26 27 25 23 26 25 23 11 6 14
26 25 23 22 22 24 24 24 24 23 22 21 21 24 29 34 37 39 39 38 38 37 39 42 42 41 40 39 38 36 33 31 30 29 29 27 28 26 22 23 22 21 20 24 12
25 29 30 27 25 24 24 24 25 25 24 23 22 22 23 24 27 31 35 38 40 39 39 38 37 38 37 37 35 32 31 30 29 32 31 30 27 24 19 18 17 15 14 15 9
27 27 29 31 33 31 29 27 26 27 27 26 26 26 25 24 25 25 27 30 34 38 42 41 39 38 36 35 34 33 33 32 31 33 30 26 19 19 18 14 14 10 6 9 10
31 33 33 32 33 35 35 34 33 32 31 31 31 30 28 27 26 27 28 30 33 35 37 39 39 40 39 39 37 36 34 31 30 27 22 17 16 16 15 13 10 8 5 7 7
38 39 38 37 35 34 33 33 33 33 33 35 34 33 30 29 29 28 29 30 29 28 31 31 29 32 31 28 26 27 23 22 22 20 15 14 12 14 13 13 12 10 7 4 6
43 43 42 39 37 35 34 33 33 33 34 33 33 34 32 31 29 29 27 25 24 24 25 25 23 22 21 20 19 19 18 19 18 15 14 12 11 15 16 15 17 15 12 8 7
49 45 42 40 38 35 34 34 34 32 34 32 31 32 32 30 29 26 23 21 20 20 22 19 16 16 17 16 15 16 17 18 15 13 13 15 15 14 18 18 20 17 14 11 9
46 43 41 40 38 36 35 36 36 32 28 32 30 31 29 27 26 23 21 19 18 17 17 13 14 15 15 16 16 16 18 17 12 15 16 16 12 12 15 16 19 19 17 15 9
39 39 39 39 37 36 36 39 34 28 31 30 31 30 28 25 24 22 21 17 16 14 12 12 12 16 14 14 14 14 14 12 11 16 17 10 8 12 12 10 14 16 18 17 13
35 37 37 36 36 36 37 40 30 28 29 28 35 32 26 23 21 22 19 15 12 10 11 13 13 16 12 13 10 10 8 8 10 14 11 10 13 13 12 14 16 19 18 19 18
32 33 32 32 33 35 36 35 25 22 26 27 33 26 17 20 21 20 15 13 12 14 12 14 14 15 11 8 7 8 9 10 11 13 12 15 16 12 15 16 16 15 17 18 19
32 29 32 32 32 32 33 31 21 24 26 26 24 17 19 22 18 16 12 14 14 14 14 14 11 10 9 9 11 11 14 11 13 15 16 16 16 13 13 14 16 13 14 14 19
31 29 29 28 29 28 27 24 24 25 24 22 17 15 20 18 17 16 17 15 15 13 12 10 12 13 7 8 12 11 17 15 18 18 20 21 14 17 14 14 16 16 14 11 15
25 24 25 25 24 24 26 22 17 17 15 17 23 24 24 20 16 17 18 13 14 13 10 9 12 11 9 10 17 17 18 20 24 27 28 27 25 21 21 21 21 22 21 18 16
23 24 23 21 18 16 17 18 20 19 19 20 20 18 17 20 20 21 18 16 14 11 11 10 11 14 18 18 19 23 28 29 32 35 39 37 34 34 32 29 28 31 29 31 25
24 20 19 20 20 21 22 21 20 21 22 22 23 24 24 25 23 18 13 13 13 10 9 12 14 17 21 27 30 33 38 40 44 45 48 48 47 42 41 40 39 41 38 39 36
21 23 21 16 13 14 20 23 24 25 25 26 24 20 20 21 17 16 15 11 10 12 14 16 18 24 29 33 36 40 45 48 53 55 57 56 55 54 53 51 50 51 47 49 49
28 25 24 23 24 25 26 25 24 24 24 22 21 21 17 15 16 15 14 12 14 17 19 22 27 31 36 40 42 45 48 51 55 60 63 64 63 60 59 59 59 58 56 51 52
Wind_Direction
238 239 240 242 242 241 241 234 233 233 231 229 227 229 227 227 230 233 237 237 237 238 243 247 249 249 255 258 256 263 266 269 274 275 291 250 288 300 300 297 299 299 297 289 290
234 238 240 241 238 238 239 236 232 231 232 233 233 230 231 232 232 237 240 243 245 247 250 251 255 257 259 265 266 267 271 278 280 286 283 271 285 292 299 299 297 294 287 289 292
232 235 237 238 235 236 240 239 237 234 230 233 234 237 235 236 237 238 240 245 249 250 252 255 257 260 262 265 270 273 275 277 278 280 286 287 287 290 295 293 291 294 292 282 296
234 235 235 233 233 236 239 242 241 240 235 235 236 237 241 242 242 241 243 245 249 251 253 255 258 261 265 269 275 280 282 285 288 290 289 287 288 289 292 290 295 294 287 292 302
239 239 237 237 238 240 241 242 243 241 240 238 240 241 241 244 246 246 247 247 250 252 254 257 260 263 268 271 275 278 280 282 285 287 289 287 289 294 292 291 292 292 283 283 295
240 244 245 244 243 244 245 245 246 245 243 241 240 242 242 244 246 247 247 248 251 253 255 257 261 264 268 270 272 276 280 284 285 288 290 290 291 291 289 286 284 287 278 287 290
247 245 244 245 247 247 249 249 248 247 245 245 245 245 246 249 251 251 249 248 250 252 254 257 260 263 265 268 272 277 279 283 287 289 288 289 290 291 290 287 282 275 272 263 287
251 250 250 249 247 246 247 249 250 249 248 246 247 248 249 250 251 252 254 254 249 251 254 256 258 261 266 270 275 277 281 284 288 288 289 290 289 287 288 286 282 276 273 246 281
252 252 253 253 252 252 252 250 249 249 250 249 248 247 248 249 251 252 254 256 257 253 253 256 259 262 266 270 273 277 280 284 286 285 284 284 285 285 288 289 287 280 254 187 296
256 255 255 255 253 255 253 252 252 253 253 251 249 247 249 249 249 251 253 257 259 260 258 258 261 263 264 268 272 275 277 278 282 281 282 281 280 279 282 280 277 275 271 261 270
263 258 256 254 255 255 256 256 254 253 253 255 255 255 253 253 252 253 254 256 257 259 260 260 261 262 264 267 270 271 272 274 276 280 281 281 278 277 269 269 268 266 268 266 230
262 266 264 259 255 254 255 257 258 258 258 258 255 256 257 257 258 259 260 261 261 259 259 260 261 263 265 266 267 268 271 275 275 271 271 271 270 266 263 250 254 255 253 268 239
265 271 268 265 261 257 256 257 258 261 261 258 256 258 257 259 261 263 265 265 262 258 258 257 259 261 263 265 269 271 271 268 264 264 264 260 262 260 262 263 248 253 232 257 242
268 269 269 262 263 260 259 259 262 261 261 259 257 256 258 262 264 267 268 267 259 254 253 256 256 259 263 267 266 264 265 260 258 256 254 256 241 256 252 255 228 237 244 242 249
269 270 266 258 258 258 260 261 260 260 261 258 256 255 258 261 266 267 268 257 252 249 250 251 248 256 262 255 252 254 246 247 246 246 244 241 237 246 248 231 222 221 230 219 240
268 266 261 254 254 254 258 258 257 259 260 263 262 259 257 259 265 267 254 249 245 241 242 243 250 241 235 237 228 236 233 240 235 227 230 230 239 241 249 236 215 218 234 237 231
262 257 250 248 249 252 253 254 254 258 263 269 264 260 257 259 259 255 246 240 238 236 238 232 229 231 225 227 222 225 231 237 230 230 234 235 233 225 230 225 209 205 219 235 216
251 247 244 243 245 247 249 252 255 258 257 263 257 251 254 252 249 239 239 232 233 231 232 220 217 228 225 227 230 235 242 247 233 238 240 232 186 233 225 218 202 211 211 234 231
246 242 241 243 244 247 248 252 256 257 258 242 242 243 244 247 236 238 231 228 224 218 207 222 206 230 222 234 235 241 239 231 221 232 229 221 225 216 238 233 211 209 207 211 228
240 238 238 241 243 244 246 254 259 248 240 236 249 254 227 229 215 228 227 214 211 215 195 210 210 226 220 222 230 253 262 255 243 250 250 251 254 245 233 246 256 240 230 223 231
238 238 238 241 241 241 246 256 245 236 235 235 247 242 209 205 209 209 197 209 209 211 188 207 199 235 212 244 251 251 255 246 255 260 253 245 240 241 238 241 244 244 241 237 244
236 233 235 236 235 242 247 247 242 236 232 217 209 204 200 197 198 185 203 195 199 196 202 204 225 237 222 263 256 252 265 271 272 270 270 267 255 254 259 238 236 243 251 238 247
228 230 224 230 231 229 237 241 228 212 207 200 180 177 186 183 173 181 192 180 195 202 206 228 242 250 262 262 277 282 279 283 281 278 272 270 269 263 260 261 263 262 263 254 244
211 215 212 211 219 222 217 189 186 182 174 177 174 170 165 153 169 186 181 187 199 211 228 241 262 285 289 279 276 280 281 278 278 278 277 271 267 270 266 261 262 264 264 262 249
200 198 196 196 197 187 181 173 167 168 162 160 156 166 169 159 178 188 184 192 211 217 243 277 285 283 283 287 289 288 290 289 284 279 278 278 274 269 266 261 257 256 257 256 253
174 176 175 172 164 162 155 162 166 156 156 159 164 166 173 175 181 177 191 230 262 276 280 278 278 283 288 289 288 290 290 288 286 285 285 280 277 276 271 265 259 257 251 252 250
167 163 161 159 157 158 160 159 153 157 161 162 171 181 179 181 203 205 211 225 245 265 276 282 285 288 291 293 294 292 290 290 290 289 288 286 282 276 269 265 261 257 255 248 249
Height
10967 10970 10972 10975 10979 10982 10984 10987 10990 10991 10994 10996 10998 10999 11001 11003 11004 11005 11006 11007 11007 11007 11008 11008 11007 11008 11007 11007 11006 11007 11007 11007 11008 11009 11012 11002 10998 10993 10992 10989 10989 10987 10987 10985 10985
10962 10965 10968 10971 10974 10976 10979 10982 10985 10987 10990 10992 10994 10995 10997 10999 11000 11001 11003 11003 11003 11004 11005 11005 11005 11005 11005 11003 11003 11003 11004 11004 11004 11007 11005 11001 10996 10992 10989 10985 10984 10982 10981 10981 10981
10958 10960 10962 10965 10968 10971 10974 10977 10979 10982 10985 10987 10989 10991 10993 10994 10997 10997 10998 10999 10999 11001 11001 11002 11001 11001 11000 11000 10999 10999 11001 11001 11002 11004 10996 10993 10991 10990 10987 10983 10981 10980 10979 10977 10976
10953 10955 10957 10960 10963 10966 10968 10971 10974 10977 10979 10982 10984 10986 10988 10990 10992 10993 10994 10994 10994 10996 10996 10997 10997 10997 10997 10996 10995 10995 10994 10995 10995 10995 10990 10985 10984 10987 10984 10978 10975 10974 10971 10972 10973
10948 10950 10952 10955 10958 10960 10962 10965 10968 10971 10974 10976 10978 10980 10982 10984 10985 10987 10989 10989 10989 10990 10991 10991 10992 10992 10992 10991 10991 10990 10990 10990 10992 10990 10985 10981 10979 10979 10977 10973 10970 10972 10966 10967 10968
10944 10945 10947 10949 10951 10954 10956 10959 10962 10965 10967 10969 10972 10973 10976 10977 10979 10981 10982 10983 10983 10984 10985 10986 10986 10987 10987 10987 10986 10985 10985 10985 10985 10985 10978 10974 10974 10973 10973 10970 10966 10965 10964 10962 10964
10941 10942 10943 10945 10946 10948 10950 10952 10954 10957 10960 10962 10964 10967 10969 10970 10972 10974 10975 10976 10977 10977 10978 10980 10981 10981 10982 10981 10982 10980 10980 10980 10980 10977 10975 10970 10968 10968 10965 10965 10963 10962 10962 10962 10962
10936 10937 10939 10940 10942 10944 10945 10946 10947 10949 10951 10953 10956 10959 10961 10962 10964 10966 10967 10968 10969 10970 10971 10973 10975 10976 10975 10976 10976 10974 10974 10974 10974 10971 10968 10965 10963 10964 10961 10959 10958 10958 10957 10959 10958
10931 10932 10933 10935 10937 10939 10940 10941 10942 10943 10944 10945 10948 10950 10952 10954 10957 10958 10960 10960 10961 10962 10964 10965 10968 10970 10969 10969 10969 10969 10967 10966 10967 10965 10963 10962 10959 10960 10959 10953 10952 10951 10954 10954 10956
10926 10927 10928 10930 10931 10933 10934 10935 10937 10938 10939 10940 10941 10943 10945 10946 10948 10950 10952 10953 10953 10954 10957 10957 10959 10961 10962 10962 10962 10962 10962 10961 10960 10959 10957 10957 10955 10955 10956 10951 10949 10948 10949 10952 10952
10919 10921 10923 10924 10926 10927 10928 10930 10931 10932 10933 10935 10937 10938 10939 10940 10941 10942 10944 10945 10946 10947 10948 10950 10952 10952 10954 10955 10955 10955 10955 10955 10954 10952 10952 10950 10949 10949 10951 10949 10948 10948 10946 10946 10947
10913 10915 10916 10917 10920 10921 10922 10924 10925 10926 10928 10929 10931 10931 10933 10934 10935 10936 10937 10938 10938 10939 10939 10942 10943 10944 10945 10946 10948 10948 10947 10947 10946 10944 10945 10944 10944 10943 10944 10948 10946 10946 10944 10943 10944
10906 10908 10908 10910 10911 10913 10915 10917 10918 10919 10921 10922 10923 10925 10926 10927 10928 10929 10930 10930 10930 10930 10930 10932 10935 10936 10937 10938 10939 10940 10940 10939 10936 10937 10940 10941 10941 10940 10940 10941 10941 10941 10944 10943 10944
10897 10899 10900 10902 10903 10905 10907 10910 10911 10911 10913 10913 10916 10917 10919 10920 10921 10923 10921 10921 10921 10922 10922 10924 10928 10928 10930 10932 10932 10930 10932 10932 10931 10933 10936 10937 10938 10937 10937 10937 10939 10939 10940 10941 10942
10887 10889 10891 10893 10894 10897 10899 10901 10902 10902 10902 10904 10907 10909 10911 10912 10913 10914 10913 10913 10914 10915 10917 10919 10921 10924 10924 10925 10926 10926 10926 10926 10928 10930 10931 10932 10933 10933 10933 10934 10935 10936 10935 10939 10940
10877 10878 10881 10883 10885 10889 10890 10891 10893 10894 10892 10897 10901 10902 10903 10905 10904 10906 10906 10907 10909 10910 10911 10915 10917 10917 10918 10919 10921 10921 10921 10922 10925 10926 10926 10928 10929 10931 10929 10930 10932 10935 10936 10938 10940
10865 10867 10870 10873 10877 10880 10882 10881 10883 10887 10890 10888 10892 10893 10896 10897 10896 10898 10899 10902 10904 10906 10908 10911 10911 10912 10913 10914 10916 10917 10917 10919 10922 10922 10922 10924 10925 10925 10924 10926 10930 10933 10934 10934 10938
10854 10856 10859 10863 10868 10871 10872 10870 10876 10883 10882 10883 10881 10883 10887 10890 10891 10892 10894 10898 10901 10903 10905 10906 10907 10907 10909 10911 10912 10913 10915 10918 10919 10917 10918 10921 10924 10922 10923 10926 10929 10932 10934 10933 10934
10844 10846 10850 10856 10859 10862 10862 10860 10870 10875 10874 10873 10870 10873 10880 10886 10887 10888 10892 10896 10899 10900 10902 10902 10904 10903 10907 10907 10909 10912 10913 10914 10915 10914 10917 10918 10918 10922 10923 10923 10925 10926 10930 10930 10927
10835 10838 10843 10847 10850 10852 10853 10852 10862 10865 10862 10865 10865 10871 10876 10879 10882 10884 10889 10894 10896 10896 10899 10899 10901 10900 10903 10906 10909 10910 10912 10912 10912 10912 10914 10915 10916 10922 10924 10926 10927 10928 10929 10929 10926
10826 10831 10835 10839 10842 10844 10846 10848 10854 10855 10856 10858 10859 10865 10870 10874 10877 10882 10888 10890 10892 10893 10896 10897 10900 10900 10904 10905 10905 10905 10905 10908 10908 10908 10909 10909 10911 10916 10920 10921 10922 10923 10924 10926 10925
10818 10824 10829 10832 10835 10838 10840 10842 10845 10848 10850 10853 10856 10865 10868 10872 10875 10880 10882 10887 10889 10892 10894 10896 10897 10896 10900 10902 10901 10903 10901 10903 10902 10903 10903 10905 10912 10912 10916 10918 10918 10917 10916 10917 10918
10813 10818 10823 10826 10829 10831 10833 10836 10838 10841 10847 10851 10853 10858 10862 10867 10874 10879 10882 10886 10888 10889 10892 10893 10893 10894 10895 10899 10896 10896 10897 10898 10896 10893 10894 10897 10900 10906 10909 10911 10911 10910 10908 10910 10912
10808 10811 10815 10819 10823 10827 10829 10831 10834 10839 10843 10849 10854 10859 10863 10870 10872 10874 10878 10881 10883 10886 10888 10890 10892 10890 10889 10890 10891 10890 10887 10887 10887 10885 10881 10886 10892 10894 10896 10900 10900 10898 10898 10898 10903
10803 10809 10813 10816 10817 10819 10824 10831 10835 10839 10843 10848 10853 10856 10860 10866 10868 10872 10876 10880 10882 10884 10885 10885 10885 10886 10885 10883 10882 10880 10877 10875 10873 10872 10870 10871 10874 10880 10883 10885 10885 10881 10881 10882 10883
10803 10807 10811 10816 10820 10825 10828 10831 10835 10840 10844 10848 10852 10857 10860 10864 10869 10873 10875 10876 10877 10878 10879 10880 10881 10878 10876 10875 10874 10871 10866 10861 10854 10852 10850 10854 10858 10861 10864 10867 10867 10865 10868 10864 10864
10801 10806 10812 10816 10819 10823 10827 10830 10837 10841 10844 10850 10852 10855 10860 10864 10866 10869 10873 10875 10875 10874 10875 10874 10873 10871 10867 10864 10862 10858 10854 10849 10841 10834 10832 10831 10832 10837 10840 10842 10843 10846 10850 10854 10851